Tracking 19846 objects as of 19-Sep-2019
HD Live streaming from Space Station
objects crossing your sky now

SL-8 DEB

Track SL-8 DEB now!
10-day predictions


NORAD ID: 22025
Int'l Code: 1991-009CJ
Perigee: 1,435.8 km
Apogee: 1,665.0 km
Inclination: 73.9 °
Period: 116.9 minutes
Semi major axis: 7921 km
RCS: 0.0299 m2 (small)
Launch date: February 12, 1991
Source: Commonwealth of Independent States (former USSR) (CIS)
Launch site: PLESETSK MISSILE AND SPACE COMPLEX (PKMTR)

Note: This is SATELLITE DEBRIS
aabbcc
Your satellite tracking list
Your tracking list is empty




NASA's NSSDC Master Catalog

Two Line Element Set (TLE):
1 22025U 91009CJ  19260.41481580 +.00000059 +00000-0 +60968-3 0  9995
2 22025 073.9415 044.1472 0144709 323.6183 099.2738 12.31405927281907
Source of the keplerian elements: AFSPC